Location: Feigenhofen
(48.4939°N, 10.7793°E)
Time: 04:49:01
(UTC+00:00)

ADEOS II - Pass Details

Date: 26 May 2022
Orbit: 798 x 801 km, 98.6° (Epoch: 24 June)

Event Time Altitude Azimuth Distance (km) Brightness Sun altitude
Rises 23:57:38 0° 30° (NNE) 3,317 6.6 -19.7°
Reaches altitude 10° 00:01:09 10° 55° (NE) 2,381 5.2 -19.6°
Maximum altitude 00:03:56 14° 87° (E) 2,082 4.4 -19.5°
Drops below altitude 10° 00:06:43 10° 120° (ESE) 2,371 4.4 -19.4°
Enters shadow 00:07:46 - 129° (SE) 2,606 4.5 -19.4°
